Time,TemperatureF,DewpointF,PressureIn,WindDirection,WindDirectionDegrees,WindSpeedMPH,WindSpeedGustMPH,Humidity,HourlyPrecipIn,Conditions,Clouds,dailyrainin,SoftwareType,DateUTC
2013-07-10 00:00:00,75.0,72.8,30.08,SW,232,0.0,1.0,93,0.00,,---,0.04,VWS V14.01,2013-07-10 04:00:00,
2013-07-10 00:01:00,75.0,72.8,30.08,SW,232,0.0,1.0,93,0.00,,---,0.04,VWS V14.01,2013-07-10 04:01:00,
2013-07-10 00:06:00,74.9,73.1,30.08,North,354,0.0,1.0,94,0.00,,---,0.00,VWS V14.01,2013-07-10 04:06:00,
2013-07-10 00:11:00,74.8,73.0,30.08,North,354,0.0,1.0,94,0.00,,---,0.00,VWS V14.01,2013-07-10 04:11:00,
2013-07-10 00:16:00,74.7,72.9,30.08,North,354,0.0,1.0,94,0.00,,---,0.00,VWS V14.01,2013-07-10 04:16:00,
2013-07-10 00:21:00,74.6,72.8,30.08,North,354,0.0,1.0,94,0.00,,---,0.00,VWS V14.01,2013-07-10 04:21:00,
2013-07-10 00:26:00,74.5,72.7,30.08,North,354,0.0,1.0,94,0.00,,---,0.00,VWS V14.01,2013-07-10 04:26:00,
2013-07-10 00:32:00,74.4,72.9,30.08,North,354,0.0,0.0,95,0.00,,---,0.00,VWS V14.01,2013-07-10 04:32:00,
2013-07-10 00:37:00,74.3,72.8,30.07,North,354,0.0,0.0,95,0.00,,---,0.00,VWS V14.01,2013-07-10 04:37:00,
2013-07-10 00:42:00,74.2,72.7,30.07,North,354,0.0,1.0,95,0.00,,---,0.00,VWS V14.01,2013-07-10 04:42:00,
2013-07-10 00:47:00,74.2,72.7,30.07,NE,39,0.0,1.0,95,0.00,,---,0.00,VWS V14.01,2013-07-10 04:47:00,
2013-07-10 00:52:00,74.2,73.0,30.07,NE,39,0.0,1.0,96,0.00,,---,0.00,VWS V14.01,2013-07-10 04:52:00,
2013-07-10 00:57:00,74.1,72.9,30.07,NE,39,0.0,1.0,96,0.00,,---,0.00,VWS V14.01,2013-07-10 04:57:00,
2013-07-10 01:02:00,74.1,72.9,30.07,NE,39,0.0,0.0,96,0.00,,---,0.00,VWS V14.01,2013-07-10 05:02:00,
2013-07-10 01:07:00,74.0,72.8,30.07,NE,39,0.0,0.0,96,0.00,,---,0.00,VWS V14.01,2013-07-10 05:07:00,
2013-07-10 01:12:00,74.0,72.8,30.07,NE,39,0.0,1.0,96,0.00,,---,0.00,VWS V14.01,2013-07-10 05:12:00,
2013-07-10 01:17:00,74.0,72.8,30.07,NE,39,0.0,1.0,96,0.00,,---,0.00,VWS V14.01,2013-07-10 05:17:00,
2013-07-10 01:22:00,74.0,72.8,30.07,NE,39,0.0,1.0,96,0.00,,---,0.00,VWS V14.01,2013-07-10 05:22:00,
2013-07-10 01:27:00,74.0,72.8,30.07,NE,39,0.0,1.0,96,0.00,,---,0.00,VWS V14.01,2013-07-10 05:27:00,
2013-07-10 01:32:00,74.0,72.8,30.07,SW,229,0.0,0.0,96,0.00,,---,0.00,VWS V14.01,2013-07-10 05:32:00,
2013-07-10 01:37:00,74.0,72.8,30.07,SW,229,0.0,0.0,96,0.00,,---,0.00,VWS V14.01,2013-07-10 05:37:00,
2013-07-10 01:42:00,74.0,72.8,30.07,SW,230,0.0,0.0,96,0.00,,---,0.00,VWS V14.01,2013-07-10 05:42:00,
2013-07-10 01:47:00,74.0,72.8,30.07,NNE,27,0.0,2.0,96,0.00,,---,0.00,VWS V14.01,2013-07-10 05:47:00,
2013-07-10 01:52:00,74.0,72.8,30.06,NE,35,0.0,2.0,96,0.00,,---,0.00,VWS V14.01,2013-07-10 05:52:00,
2013-07-10 01:58:00,74.0,72.8,30.07,North,356,0.0,2.0,96,0.00,,---,0.00,VWS V14.01,2013-07-10 05:58:00,
2013-07-10 02:03:00,74.0,72.8,30.06,North,356,0.0,0.0,96,0.00,,---,0.00,VWS V14.01,2013-07-10 06:03:00,
2013-07-10 02:08:00,74.0,72.8,30.06,SSW,197,0.0,2.0,96,0.00,,---,0.00,VWS V14.01,2013-07-10 06:08:00,
2013-07-10 02:13:00,74.0,72.8,30.06,SSW,203,0.0,2.0,96,0.00,,---,0.00,VWS V14.01,2013-07-10 06:13:00,
2013-07-10 02:18:00,74.0,72.8,30.05,SSW,203,0.0,2.0,96,0.00,,---,0.00,VWS V14.01,2013-07-10 06:18:00,
2013-07-10 02:23:00,74.0,72.8,30.06,SSW,203,0.0,2.0,96,0.00,,---,0.00,VWS V14.01,2013-07-10 06:23:00,
2013-07-10 02:28:00,73.9,73.0,30.05,SSW,203,0.0,2.0,97,0.00,,---,0.00,VWS V14.01,2013-07-10 06:28:00,
2013-07-10 02:33:00,73.9,73.0,30.05,SSW,203,0.0,0.0,97,0.00,,---,0.00,VWS V14.01,2013-07-10 06:33:00,
2013-07-10 02:38:00,73.9,73.0,30.05,SSW,208,0.0,1.0,97,0.00,,---,0.00,VWS V14.01,2013-07-10 06:38:00,
2013-07-10 02:43:00,73.9,73.0,30.05,SSW,208,0.0,1.0,97,0.00,,---,0.00,VWS V14.01,2013-07-10 06:43:00,
2013-07-10 02:49:00,73.9,73.0,30.04,SSW,208,0.0,1.0,97,0.00,,---,0.00,VWS V14.01,2013-07-10 06:49:00,
2013-07-10 02:54:00,73.8,72.9,30.04,SSW,208,0.0,1.0,97,0.00,,---,0.00,VWS V14.01,2013-07-10 06:54:00,
2013-07-10 02:59:00,73.9,73.0,30.04,SSW,204,0.0,1.0,97,0.00,,---,0.00,VWS V14.01,2013-07-10 06:59:00,
2013-07-10 03:04:00,73.8,72.9,30.04,SSW,203,0.0,1.0,97,0.00,,---,0.00,VWS V14.01,2013-07-10 07:04:00,
2013-07-10 03:09:00,73.8,72.9,30.04,South,184,0.0,2.0,97,0.00,,---,0.00,VWS V14.01,2013-07-10 07:09:00,
2013-07-10 03:14:00,73.7,72.8,30.04,SSW,207,0.0,2.0,97,0.00,,---,0.00,VWS V14.01,2013-07-10 07:14:00,
2013-07-10 03:19:00,73.8,72.9,30.04,West,263,1.0,2.0,97,0.00,,---,0.00,VWS V14.01,2013-07-10 07:19:00,
2013-07-10 03:24:00,73.8,72.9,30.04,WSW,255,0.0,2.0,97,0.00,,---,0.00,VWS V14.01,2013-07-10 07:24:00,
2013-07-10 03:30:00,73.7,72.8,30.04,SSW,211,1.0,2.0,97,0.00,,---,0.00,VWS V14.01,2013-07-10 07:30:00,
2013-07-10 03:35:00,73.7,72.8,30.04,SW,217,1.0,1.0,97,0.00,,---,0.00,VWS V14.01,2013-07-10 07:35:00,
2013-07-10 03:40:00,73.7,72.8,30.03,West,271,0.0,2.0,97,0.00,,---,0.00,VWS V14.01,2013-07-10 07:40:00,
2013-07-10 03:45:00,73.7,72.8,30.03,SW,236,1.0,2.0,97,0.00,,---,0.00,VWS V14.01,2013-07-10 07:45:00,
2013-07-10 03:50:00,73.7,72.8,30.03,West,260,0.0,2.0,97,0.00,,---,0.00,VWS V14.01,2013-07-10 07:50:00,
2013-07-10 03:55:00,73.7,72.8,30.04,West,264,1.0,2.0,97,0.00,,---,0.00,VWS V14.01,2013-07-10 07:55:00,
2013-07-10 04:00:00,73.7,72.8,30.04,West,270,0.0,2.0,97,0.00,,---,0.00,VWS V14.01,2013-07-10 08:00:00,
2013-07-10 04:05:00,73.6,72.4,30.04,WSW,249,0.0,1.0,96,0.00,,---,0.00,VWS V14.01,2013-07-10 08:05:00,
2013-07-10 04:10:00,73.6,72.7,30.04,West,264,1.0,1.0,97,0.00,,---,0.00,VWS V14.01,2013-07-10 08:10:00,
2013-07-10 04:15:00,73.6,72.4,30.04,West,264,0.0,1.0,96,0.00,,---,0.00,VWS V14.01,2013-07-10 08:15:00,
2013-07-10 04:20:00,73.5,72.3,30.04,West,264,0.0,1.0,96,0.00,,---,0.00,VWS V14.01,2013-07-10 08:20:00,
2013-07-10 04:25:00,73.5,72.6,30.04,WSW,257,0.0,1.0,97,0.00,,---,0.00,VWS V14.01,2013-07-10 08:25:00,
2013-07-10 04:31:00,73.5,72.6,30.04,WSW,257,1.0,1.0,97,0.00,,---,0.00,VWS V14.01,2013-07-10 08:31:00,
2013-07-10 04:36:00,73.5,72.6,30.04,WNW,287,0.0,1.0,97,0.00,,---,0.00,VWS V14.01,2013-07-10 08:36:00,
2013-07-10 04:41:00,73.6,72.7,30.04,North,1,0.0,1.0,97,0.00,,---,0.00,VWS V14.01,2013-07-10 08:41:00,
2013-07-10 04:46:00,73.7,72.8,30.04,North,1,0.0,1.0,97,0.00,,---,0.00,VWS V14.01,2013-07-10 08:46:00,
2013-07-10 04:51:00,73.7,72.8,30.04,North,1,0.0,1.0,97,0.00,,---,0.00,VWS V14.01,2013-07-10 08:51:00,
2013-07-10 04:56:00,73.7,72.8,30.04,NNE,13,0.0,1.0,97,0.00,,---,0.00,VWS V14.01,2013-07-10 08:56:00,
2013-07-10 05:01:00,73.8,72.9,30.04,WNW,287,0.0,1.0,97,0.00,,---,0.00,VWS V14.01,2013-07-10 09:01:00,
2013-07-10 05:06:00,73.9,73.0,30.04,WSW,253,1.0,1.0,97,0.00,,---,0.00,VWS V14.01,2013-07-10 09:06:00,
2013-07-10 05:11:00,73.9,73.0,30.04,WSW,255,0.0,1.0,97,0.00,,---,0.00,VWS V14.01,2013-07-10 09:11:00,
2013-07-10 05:16:00,73.9,73.0,30.04,WSW,257,1.0,1.0,97,0.00,,---,0.00,VWS V14.01,2013-07-10 09:16:00,
2013-07-10 05:21:00,74.0,73.1,30.04,WSW,257,0.0,1.0,97,0.00,,---,0.00,VWS V14.01,2013-07-10 09:21:00,
2013-07-10 05:26:00,74.0,73.1,30.04,West,266,0.0,1.0,97,0.00,,---,0.00,VWS V14.01,2013-07-10 09:26:00,
2013-07-10 05:32:00,74.0,73.1,30.04,West,266,0.0,1.0,97,0.00,,---,0.00,VWS V14.01,2013-07-10 09:32:00,
2013-07-10 05:37:00,74.0,73.1,30.04,West,267,0.0,1.0,97,0.00,,---,0.00,VWS V14.01,2013-07-10 09:37:00,
2013-07-10 05:42:00,74.1,73.2,30.04,SW,228,1.0,2.0,97,0.00,,---,0.00,VWS V14.01,2013-07-10 09:42:00,
2013-07-10 05:47:00,74.2,73.3,30.04,WSW,238,0.0,2.0,97,0.00,,---,0.00,VWS V14.01,2013-07-10 09:47:00,
2013-07-10 05:52:00,74.2,73.3,30.04,WSW,242,1.0,2.0,97,0.00,,---,0.00,VWS V14.01,2013-07-10 09:52:00,
2013-07-10 05:57:00,74.2,73.3,30.04,WSW,242,1.0,2.0,97,0.00,,---,0.00,VWS V14.01,2013-07-10 09:57:00,
2013-07-10 06:03:00,74.2,73.3,30.05,WSW,242,0.0,0.0,97,0.00,,---,0.00,VWS V14.01,2013-07-10 10:03:00,
2013-07-10 06:08:00,74.2,73.3,30.04,WSW,240,0.0,1.0,97,0.00,,---,0.00,VWS V14.01,2013-07-10 10:08:00,
2013-07-10 06:13:00,74.2,73.3,30.04,West,273,1.0,1.0,97,0.00,,---,0.00,VWS V14.01,2013-07-10 10:13:00,
2013-07-10 06:18:00,74.1,73.2,30.04,West,272,0.0,1.0,97,0.00,,---,0.00,VWS V14.01,2013-07-10 10:18:00,
2013-07-10 06:23:00,74.2,73.3,30.04,West,273,1.0,1.0,97,0.00,,---,0.00,VWS V14.01,2013-07-10 10:23:00,
2013-07-10 06:28:00,74.2,73.3,30.04,West,273,0.0,1.0,97,0.00,,---,0.00,VWS V14.01,2013-07-10 10:28:00,
2013-07-10 06:33:00,74.3,73.4,30.04,West,270,0.0,1.0,97,0.00,,---,0.00,VWS V14.01,2013-07-10 10:33:00,
2013-07-10 06:38:00,74.3,73.4,30.04,SSE,149,1.0,2.0,97,0.00,,---,0.00,VWS V14.01,2013-07-10 10:38:00,
2013-07-10 06:43:00,74.4,73.5,30.04,West,259,0.0,2.0,97,0.00,,---,0.00,VWS V14.01,2013-07-10 10:43:00,
2013-07-10 06:48:00,74.5,73.6,30.04,West,260,1.0,2.0,97,0.00,,---,0.00,VWS V14.01,2013-07-10 10:48:00,
2013-07-10 06:53:00,74.6,73.7,30.04,West,259,0.0,2.0,97,0.00,,---,0.00,VWS V14.01,2013-07-10 10:53:00,
2013-07-10 06:58:00,74.6,73.7,30.04,West,265,1.0,2.0,97,0.00,,---,0.00,VWS V14.01,2013-07-10 10:58:00,
2013-07-10 07:03:00,74.7,73.8,30.04,West,266,0.0,1.0,97,0.00,,---,0.00,VWS V14.01,2013-07-10 11:03:00,
2013-07-10 07:09:00,74.8,73.9,30.05,West,269,0.0,2.0,97,0.00,,---,0.00,VWS V14.01,2013-07-10 11:09:00,
2013-07-10 07:14:00,74.8,73.6,30.05,West,269,0.0,2.0,96,0.00,,---,0.00,VWS V14.01,2013-07-10 11:14:00,
2013-07-10 07:19:00,74.9,73.7,30.05,West,260,1.0,2.0,96,0.00,,---,0.00,VWS V14.01,2013-07-10 11:19:00,
2013-07-10 07:24:00,74.9,73.7,30.05,WSW,242,0.0,2.0,96,0.00,,---,0.00,VWS V14.01,2013-07-10 11:24:00,
2013-07-10 07:29:00,75.0,73.8,30.05,ENE,70,0.0,2.0,96,0.00,,---,0.00,VWS V14.01,2013-07-10 11:29:00,
2013-07-10 07:34:00,75.1,73.9,30.05,South,190,0.0,1.0,96,0.00,,---,0.00,VWS V14.01,2013-07-10 11:34:00,
2013-07-10 07:39:00,75.3,74.1,30.05,SSW,210,0.0,1.0,96,0.00,,---,0.00,VWS V14.01,2013-07-10 11:39:00,
2013-07-10 07:44:00,75.5,74.3,30.05,WSW,252,1.0,2.0,96,0.00,,---,0.00,VWS V14.01,2013-07-10 11:44:00,
2013-07-10 07:49:00,75.6,74.1,30.05,SW,218,0.0,2.0,95,0.00,,---,0.00,VWS V14.01,2013-07-10 11:49:00,
2013-07-10 07:54:00,75.8,74.3,30.05,SW,218,1.0,2.0,95,0.00,,---,0.00,VWS V14.01,2013-07-10 11:54:00,
2013-07-10 07:59:00,75.8,74.3,30.05,SSE,158,2.0,2.0,95,0.00,,---,0.00,VWS V14.01,2013-07-10 11:59:00,
2013-07-10 08:05:00,75.9,74.4,30.05,SW,214,0.0,1.0,95,0.00,,---,0.00,VWS V14.01,2013-07-10 12:05:00,
2013-07-10 08:10:00,76.0,74.5,30.05,West,270,0.0,2.0,95,0.00,,---,0.00,VWS V14.01,2013-07-10 12:10:00,
2013-07-10 08:15:00,75.9,74.1,30.05,SSE,163,1.0,2.0,94,0.00,,---,0.00,VWS V14.01,2013-07-10 12:15:00,
2013-07-10 08:20:00,76.1,74.2,30.05,NE,56,0.0,2.0,94,0.00,,---,0.00,VWS V14.01,2013-07-10 12:20:00,
2013-07-10 08:25:00,76.1,74.2,30.05,ENE,69,0.0,2.0,94,0.00,,---,0.00,VWS V14.01,2013-07-10 12:25:00,
2013-07-10 08:30:00,76.2,74.3,30.04,SSE,162,0.0,2.0,94,0.00,,---,0.00,VWS V14.01,2013-07-10 12:30:00,
2013-07-10 08:35:00,76.3,74.4,30.05,SW,225,0.0,2.0,94,0.00,,---,0.00,VWS V14.01,2013-07-10 12:35:00,
2013-07-10 08:40:00,76.5,74.7,30.05,WSW,256,1.0,2.0,94,0.00,,---,0.00,VWS V14.01,2013-07-10 12:40:00,
2013-07-10 08:45:00,76.6,74.4,30.05,SSW,201,1.0,2.0,93,0.00,,---,0.00,VWS V14.01,2013-07-10 12:45:00,
2013-07-10 08:50:00,76.7,74.2,30.05,SSW,205,0.0,2.0,92,0.00,,---,0.00,VWS V14.01,2013-07-10 12:50:00,
2013-07-10 08:55:00,76.8,74.6,30.05,SW,217,0.0,2.0,93,0.00,,---,0.00,VWS V14.01,2013-07-10 12:55:00,
2013-07-10 09:00:00,76.9,74.7,30.05,SE,132,0.0,2.0,93,0.00,,---,0.00,VWS V14.01,2013-07-10 13:00:00,
2013-07-10 09:06:00,77.0,74.8,30.05,SW,225,1.0,2.0,93,0.00,,---,0.00,VWS V14.01,2013-07-10 13:06:00,
2013-07-10 09:11:00,77.1,74.6,30.05,SSE,155,1.0,2.0,92,0.00,,---,0.00,VWS V14.01,2013-07-10 13:11:00,
2013-07-10 09:16:00,77.4,74.9,30.05,SSE,149,0.0,2.0,92,0.00,,---,0.00,VWS V14.01,2013-07-10 13:16:00,
2013-07-10 09:21:00,77.7,75.2,30.05,West,267,1.0,2.0,92,0.00,,---,0.00,VWS V14.01,2013-07-10 13:21:00,
2013-07-10 09:22:00,77.8,75.0,30.05,West,267,0.0,2.0,91,0.00,,---,0.00,VWS V14.01,2013-07-10 13:22:00,
2013-07-10 09:27:00,78.0,74.8,30.05,West,269,1.0,2.0,90,0.00,,---,0.00,VWS V14.01,2013-07-10 13:27:00,
2013-07-10 09:32:00,78.2,75.0,30.05,West,264,1.0,1.0,90,0.00,,---,0.00,VWS V14.01,2013-07-10 13:32:00,
2013-07-10 09:38:00,78.6,75.4,30.05,WSW,238,1.0,2.0,90,0.00,,---,0.00,VWS V14.01,2013-07-10 13:38:00,
2013-07-10 09:43:00,79.0,75.2,30.05,WSW,252,2.0,4.0,88,0.00,,---,0.00,VWS V14.01,2013-07-10 13:43:00,
2013-07-10 09:48:00,79.0,74.8,30.05,West,266,2.0,4.0,87,0.00,,---,0.00,VWS V14.01,2013-07-10 13:48:00,
2013-07-10 09:53:00,79.1,74.9,30.04,SSW,201,0.0,4.0,87,0.00,,---,0.00,VWS V14.01,2013-07-10 13:53:00,
2013-07-10 09:58:00,79.4,75.2,30.04,SSW,195,1.0,4.0,87,0.00,,---,0.00,VWS V14.01,2013-07-10 13:58:00,
2013-07-10 10:03:00,79.7,75.5,30.04,SW,230,1.0,3.0,87,0.00,,---,0.00,VWS V14.01,2013-07-10 14:03:00,
2013-07-10 10:08:00,79.9,75.3,30.04,SW,224,1.0,3.0,86,0.00,,---,0.00,VWS V14.01,2013-07-10 14:08:00,
2013-07-10 10:13:00,80.0,75.1,30.04,South,184,0.0,3.0,85,0.00,,---,0.00,VWS V14.01,2013-07-10 14:13:00,
2013-07-10 10:18:00,80.3,75.7,30.03,East,98,0.0,3.0,86,0.00,,---,0.00,VWS V14.01,2013-07-10 14:18:00,
2013-07-10 10:23:00,80.6,76.0,30.03,SW,224,0.0,3.0,86,0.00,,---,0.00,VWS V14.01,2013-07-10 14:23:00,
2013-07-10 10:28:00,80.9,76.0,30.03,West,263,1.0,4.0,85,0.00,,---,0.00,VWS V14.01,2013-07-10 14:28:00,
2013-07-10 10:33:00,81.1,76.2,30.04,West,275,1.0,2.0,85,0.00,,---,0.00,VWS V14.01,2013-07-10 14:33:00,
2013-07-10 10:38:00,81.1,75.4,30.04,SSW,205,0.0,3.0,83,0.00,,---,0.00,VWS V14.01,2013-07-10 14:38:00,
2013-07-10 10:44:00,81.4,75.7,30.04,WSW,248,0.0,3.0,83,0.00,,---,0.00,VWS V14.01,2013-07-10 14:44:00,
2013-07-10 10:49:00,81.8,76.1,30.04,West,263,1.0,3.0,83,0.00,,---,0.00,VWS V14.01,2013-07-10 14:49:00,
2013-07-10 10:54:00,82.1,76.1,30.04,SSW,211,0.0,3.0,82,0.00,,---,0.00,VWS V14.01,2013-07-10 14:54:00,
2013-07-10 10:59:00,82.2,75.8,30.04,ESE,105,0.0,3.0,81,0.00,,---,0.00,VWS V14.01,2013-07-10 14:59:00,
2013-07-10 11:04:00,82.0,76.0,30.04,West,264,0.0,2.0,82,0.00,,---,0.00,VWS V14.01,2013-07-10 15:04:00,
2013-07-10 11:09:00,81.6,75.6,30.04,WSW,245,1.0,2.0,82,0.00,,---,0.00,VWS V14.01,2013-07-10 15:09:00,
2013-07-10 11:14:00,81.4,75.7,30.04,WSW,250,1.0,3.0,83,0.00,,---,0.00,VWS V14.01,2013-07-10 15:14:00,
2013-07-10 11:20:00,81.2,75.6,30.04,WSW,238,0.0,3.0,83,0.00,,---,0.00,VWS V14.01,2013-07-10 15:20:00,
2013-07-10 11:25:00,81.2,76.3,30.04,West,281,0.0,3.0,85,0.00,,---,0.00,VWS V14.01,2013-07-10 15:25:00,
2013-07-10 11:30:00,81.2,75.9,30.04,West,274,0.0,3.0,84,0.00,,---,0.00,VWS V14.01,2013-07-10 15:30:00,
2013-07-10 11:35:00,81.2,76.3,30.04,SW,228,1.0,2.0,85,0.00,,---,0.00,VWS V14.01,2013-07-10 15:35:00,
2013-07-10 11:40:00,81.5,76.2,30.04,SW,215,0.0,2.0,84,0.00,,---,0.00,VWS V14.01,2013-07-10 15:40:00,
2013-07-10 11:45:00,82.0,76.7,30.04,SSW,203,1.0,3.0,84,0.00,,---,0.00,VWS V14.01,2013-07-10 15:45:00,
2013-07-10 11:50:00,82.7,76.7,30.03,East,91,3.0,4.0,82,0.00,,---,0.00,VWS V14.01,2013-07-10 15:50:00,
2013-07-10 11:55:00,83.1,76.7,30.03,ENE,65,1.0,4.0,81,0.00,,---,0.00,VWS V14.01,2013-07-10 15:55:00,
2013-07-10 12:00:00,83.9,77.1,30.03,SSW,200,2.0,4.0,80,0.00,,---,0.00,VWS V14.01,2013-07-10 16:00:00,
2013-07-10 12:05:00,83.6,76.8,30.03,SSW,200,0.0,4.0,80,0.00,,---,0.00,VWS V14.01,2013-07-10 16:05:00,
2013-07-10 12:11:00,83.5,77.1,30.03,NNE,18,2.0,4.0,81,0.00,,---,0.00,VWS V14.01,2013-07-10 16:11:00,
2013-07-10 12:16:00,83.8,77.0,30.03,SW,235,1.0,5.0,80,0.00,,---,0.00,VWS V14.01,2013-07-10 16:16:00,
2013-07-10 12:21:00,83.7,77.2,30.03,SSW,205,0.0,5.0,81,0.00,,---,0.00,VWS V14.01,2013-07-10 16:21:00,
2013-07-10 12:26:00,83.5,76.7,30.03,SSW,211,1.0,5.0,80,0.00,,---,0.00,VWS V14.01,2013-07-10 16:26:00,
2013-07-10 12:31:00,83.4,77.0,30.03,West,281,1.0,5.0,81,0.00,,---,0.00,VWS V14.01,2013-07-10 16:31:00,
2013-07-10 12:36:00,83.1,76.7,30.03,SSW,200,1.0,2.0,81,0.00,,---,0.00,VWS V14.01,2013-07-10 16:36:00,
2013-07-10 12:41:00,83.6,77.2,30.03,SSE,155,1.0,2.0,81,0.00,,---,0.00,VWS V14.01,2013-07-10 16:41:00,
2013-07-10 12:46:00,84.4,77.6,30.03,East,97,2.0,3.0,80,0.00,,---,0.00,VWS V14.01,2013-07-10 16:46:00,
2013-07-10 12:51:00,84.2,76.6,30.03,ESE,115,2.0,4.0,78,0.00,,---,0.00,VWS V14.01,2013-07-10 16:51:00,
2013-07-10 12:56:00,84.4,77.2,30.03,West,279,0.0,4.0,79,0.00,,---,0.00,VWS V14.01,2013-07-10 16:56:00,
2013-07-10 13:01:00,85.2,77.6,30.02,SSW,200,1.0,1.0,78,0.00,,---,0.00,VWS V14.01,2013-07-10 17:01:00,
2013-07-10 13:07:00,85.9,77.9,30.02,SE,131,1.0,3.0,77,0.00,,---,0.00,VWS V14.01,2013-07-10 17:07:00,
2013-07-10 13:12:00,85.5,77.1,30.02,East,83,1.0,3.0,76,0.00,,---,0.00,VWS V14.01,2013-07-10 17:12:00,
2013-07-10 13:17:00,85.5,77.1,30.02,SSW,211,1.0,3.0,76,0.00,,---,0.00,VWS V14.01,2013-07-10 17:17:00,
2013-07-10 13:22:00,85.9,77.9,30.02,SE,144,2.0,3.0,77,0.00,,---,0.00,VWS V14.01,2013-07-10 17:22:00,
2013-07-10 13:27:00,86.3,77.8,30.02,WSW,257,2.0,3.0,76,0.00,,---,0.00,VWS V14.01,2013-07-10 17:27:00,
2013-07-10 13:32:00,86.8,77.5,30.01,West,275,1.0,3.0,74,0.00,,---,0.00,VWS V14.01,2013-07-10 17:32:00,
2013-07-10 13:37:00,87.1,77.8,30.01,SSW,195,1.0,3.0,74,0.00,,---,0.00,VWS V14.01,2013-07-10 17:37:00,
2013-07-10 13:42:00,87.3,77.2,30.01,SE,130,1.0,5.0,72,0.00,,---,0.00,VWS V14.01,2013-07-10 17:42:00,
2013-07-10 13:47:00,86.9,77.6,30.01,WSW,257,1.0,5.0,74,0.00,,---,0.00,VWS V14.01,2013-07-10 17:47:00,
2013-07-10 13:52:00,87.2,77.1,30.01,WSW,248,2.0,5.0,72,0.00,,---,0.00,VWS V14.01,2013-07-10 17:52:00,
2013-07-10 13:57:00,87.0,77.7,30.00,West,278,1.0,5.0,74,0.00,,---,0.00,VWS V14.01,2013-07-10 17:57:00,
2013-07-10 14:02:00,87.6,77.9,30.00,WNW,288,1.0,2.0,73,0.00,,---,0.00,VWS V14.01,2013-07-10 18:02:00,
2013-07-10 14:07:00,88.6,78.0,30.00,WSW,248,0.0,3.0,71,0.00,,---,0.00,VWS V14.01,2013-07-10 18:07:00,
2013-07-10 14:12:00,89.3,77.8,30.00,SW,226,2.0,3.0,69,0.00,,---,0.00,VWS V14.01,2013-07-10 18:12:00,
2013-07-10 14:17:00,88.9,77.0,29.99,East,85,1.0,3.0,68,0.00,,---,0.00,VWS V14.01,2013-07-10 18:17:00,
2013-07-10 14:23:00,88.6,78.0,29.99,ESE,106,2.0,3.0,71,0.00,,---,0.00,VWS V14.01,2013-07-10 18:23:00,
2013-07-10 14:28:00,88.3,77.3,29.99,WSW,245,3.0,4.0,70,0.00,,---,0.00,VWS V14.01,2013-07-10 18:28:00,
2013-07-10 14:33:00,88.3,77.3,29.98,WSW,257,1.0,2.0,70,0.00,,---,0.00,VWS V14.01,2013-07-10 18:33:00,
2013-07-10 14:38:00,88.6,78.0,29.98,WNW,294,1.0,3.0,71,0.00,,---,0.00,VWS V14.01,2013-07-10 18:38:00,
2013-07-10 14:43:00,88.4,76.9,29.97,West,275,1.0,4.0,69,0.00,,---,0.00,VWS V14.01,2013-07-10 18:43:00,
2013-07-10 14:48:00,88.2,77.6,29.97,SSW,211,1.0,4.0,71,0.00,,---,0.00,VWS V14.01,2013-07-10 18:48:00,
2013-07-10 14:53:00,89.0,77.9,29.97,SSE,162,1.0,4.0,70,0.00,,---,0.00,VWS V14.01,2013-07-10 18:53:00,
2013-07-10 14:58:00,89.5,78.0,29.96,West,278,1.0,4.0,69,0.00,,---,0.00,VWS V14.01,2013-07-10 18:58:00,
2013-07-10 15:03:00,89.7,78.6,29.96,West,271,1.0,2.0,70,0.00,,---,0.00,VWS V14.01,2013-07-10 19:03:00,
2013-07-10 15:08:00,89.7,77.7,29.96,West,260,1.0,2.0,68,0.00,,---,0.00,VWS V14.01,2013-07-10 19:08:00,
2013-07-10 15:13:00,89.6,78.5,29.95,WNW,290,1.0,2.0,70,0.00,,---,0.00,VWS V14.01,2013-07-10 19:13:00,
2013-07-10 15:18:00,89.4,77.9,29.95,SW,226,1.0,2.0,69,0.00,,---,0.00,VWS V14.01,2013-07-10 19:18:00,
2013-07-10 15:23:00,88.4,77.4,29.95,SW,235,1.0,2.0,70,0.00,,---,0.00,VWS V14.01,2013-07-10 19:23:00,
2013-07-10 15:28:00,87.6,76.6,29.95,East,81,1.0,3.0,70,0.00,,---,0.00,VWS V14.01,2013-07-10 19:28:00,
2013-07-10 15:33:00,87.2,77.1,29.95,East,99,1.0,2.0,72,0.00,,---,0.00,VWS V14.01,2013-07-10 19:33:00,
2013-07-10 15:39:00,86.7,77.0,29.95,SSE,150,2.0,3.0,73,0.00,,---,0.00,VWS V14.01,2013-07-10 19:39:00,
2013-07-10 15:43:00,86.4,77.1,29.95,SW,235,2.0,4.0,74,0.00,,---,0.00,VWS V14.01,2013-07-10 19:43:00,
2013-07-10 15:49:00,86.1,76.8,29.95,SW,224,1.0,4.0,74,0.00,,---,0.00,VWS V14.01,2013-07-10 19:49:00,
2013-07-10 15:54:00,86.0,77.2,29.94,SW,215,1.0,4.0,75,0.00,,---,0.00,VWS V14.01,2013-07-10 19:54:00,
2013-07-10 15:59:00,86.4,77.5,29.95,SE,131,1.0,4.0,75,0.00,,---,0.00,VWS V14.01,2013-07-10 19:59:00,
2013-07-10 16:04:00,86.7,77.4,29.95,SSW,193,2.0,2.0,74,0.00,,---,0.00,VWS V14.01,2013-07-10 20:04:00,
2013-07-10 16:09:00,87.2,77.5,29.94,SE,129,0.0,3.0,73,0.00,,---,0.00,VWS V14.01,2013-07-10 20:09:00,
2013-07-10 16:14:00,87.3,76.3,29.95,SE,145,1.0,4.0,70,0.00,,---,0.00,VWS V14.01,2013-07-10 20:14:00,
2013-07-10 16:19:00,87.4,76.8,29.94,SE,132,4.0,5.0,71,0.00,,---,0.00,VWS V14.01,2013-07-10 20:19:00,
2013-07-10 16:25:00,87.3,77.2,29.94,SSE,167,2.0,5.0,72,0.00,,---,0.00,VWS V14.01,2013-07-10 20:25:00,
2013-07-10 16:30:00,87.2,77.1,29.94,SSW,204,0.0,5.0,72,0.00,,---,0.00,VWS V14.01,2013-07-10 20:30:00,
2013-07-10 16:35:00,87.2,76.7,29.94,East,98,2.0,3.0,71,0.00,,---,0.00,VWS V14.01,2013-07-10 20:35:00,
2013-07-10 16:40:00,87.0,76.9,29.94,SE,136,1.0,3.0,72,0.00,,---,0.00,VWS V14.01,2013-07-10 20:40:00,
2013-07-10 16:45:00,86.6,76.1,29.94,SE,142,1.0,3.0,71,0.00,,---,0.00,VWS V14.01,2013-07-10 20:45:00,
2013-07-10 16:50:00,86.3,76.2,29.94,WSW,241,1.0,4.0,72,0.00,,---,0.00,VWS V14.01,2013-07-10 20:50:00,
2013-07-10 16:55:00,86.2,76.5,29.93,SE,141,1.0,4.0,73,0.00,,---,0.00,VWS V14.01,2013-07-10 20:55:00,
2013-07-10 17:01:00,86.4,77.1,29.93,SW,229,1.0,4.0,74,0.00,,---,0.00,VWS V14.01,2013-07-10 21:01:00,
2013-07-10 17:06:00,86.6,77.3,29.93,SSW,196,1.0,3.0,74,0.00,,---,0.00,VWS V14.01,2013-07-10 21:06:00,
2013-07-10 17:11:00,86.5,76.4,29.94,WSW,250,2.0,7.0,72,0.00,,---,0.00,VWS V14.01,2013-07-10 21:11:00,
2013-07-10 17:16:00,85.9,76.2,29.93,SSW,204,2.0,7.0,73,0.00,,---,0.00,VWS V14.01,2013-07-10 21:16:00,
2013-07-10 17:21:00,85.4,76.2,29.93,SSE,163,2.0,7.0,74,0.00,,---,0.00,VWS V14.01,2013-07-10 21:21:00,
2013-07-10 17:26:00,85.2,76.4,29.93,WSW,240,0.0,7.0,75,0.00,,---,0.00,VWS V14.01,2013-07-10 21:26:00,
2013-07-10 17:31:00,84.8,76.0,29.93,SE,131,0.0,1.0,75,0.00,,---,0.00,VWS V14.01,2013-07-10 21:31:00,
2013-07-10 17:36:00,84.6,76.2,29.92,SSE,150,0.0,2.0,76,0.00,,---,0.00,VWS V14.01,2013-07-10 21:36:00,
2013-07-10 17:42:00,84.5,76.1,29.92,SSE,155,1.0,4.0,76,0.00,,---,0.00,VWS V14.01,2013-07-10 21:42:00,
2013-07-10 17:47:00,84.5,76.1,29.92,SSW,207,1.0,4.0,76,0.00,,---,0.00,VWS V14.01,2013-07-10 21:47:00,
2013-07-10 17:52:00,84.4,76.0,29.93,SSE,150,0.0,4.0,76,0.00,,---,0.00,VWS V14.01,2013-07-10 21:52:00,
2013-07-10 17:57:00,84.1,76.1,29.93,SW,225,1.0,4.0,77,0.00,,---,0.00,VWS V14.01,2013-07-10 21:57:00,
2013-07-10 18:02:00,83.8,75.8,29.93,WNW,293,0.0,3.0,77,0.00,,---,0.00,VWS V14.01,2013-07-10 22:02:00,
2013-07-10 18:07:00,83.5,75.5,29.93,SSE,156,1.0,4.0,77,0.00,,---,0.00,VWS V14.01,2013-07-10 22:07:00,
2013-07-10 18:12:00,83.0,75.1,29.93,ESE,115,1.0,4.0,77,0.00,,---,0.00,VWS V14.01,2013-07-10 22:12:00,
2013-07-10 18:17:00,82.7,75.5,29.93,South,188,0.0,4.0,79,0.00,,---,0.00,VWS V14.01,2013-07-10 22:17:00,
2013-07-10 18:22:00,82.5,75.3,29.93,SSE,153,0.0,4.0,79,0.00,,---,0.00,VWS V14.01,2013-07-10 22:22:00,
2013-07-10 18:27:00,82.4,75.6,29.93,North,4,1.0,4.0,80,0.00,,---,0.00,VWS V14.01,2013-07-10 22:27:00,
2013-07-10 18:32:00,82.2,75.4,29.92,South,184,1.0,2.0,80,0.00,,---,0.00,VWS V14.01,2013-07-10 22:32:00,
2013-07-10 18:37:00,82.0,75.6,29.92,SSW,211,0.0,3.0,81,0.00,,---,0.00,VWS V14.01,2013-07-10 22:37:00,
2013-07-10 18:42:00,81.9,75.5,29.93,South,169,1.0,3.0,81,0.00,,---,0.00,VWS V14.01,2013-07-10 22:42:00,
2013-07-10 18:47:00,81.9,75.9,29.93,West,262,1.0,3.0,82,0.00,,---,0.00,VWS V14.01,2013-07-10 22:47:00,
2013-07-10 18:53:00,82.0,76.0,29.93,West,281,2.0,3.0,82,0.00,,---,0.00,VWS V14.01,2013-07-10 22:53:00,
2013-07-10 18:58:00,81.6,75.2,29.93,NNE,16,1.0,5.0,81,0.00,,---,0.00,VWS V14.01,2013-07-10 22:58:00,
2013-07-10 19:03:00,81.0,74.6,29.93,East,101,0.0,1.0,81,0.00,,---,0.00,VWS V14.01,2013-07-10 23:03:00,
2013-07-10 19:08:00,80.7,74.3,29.92,SSW,195,1.0,2.0,81,0.00,,---,0.00,VWS V14.01,2013-07-10 23:08:00,
2013-07-10 19:13:00,80.5,74.5,29.93,SW,236,0.0,2.0,82,0.00,,---,0.00,VWS V14.01,2013-07-10 23:13:00,
2013-07-10 19:18:00,80.5,74.5,29.93,WSW,237,0.0,2.0,82,0.00,,---,0.00,VWS V14.01,2013-07-10 23:18:00,
2013-07-10 19:23:00,80.3,74.7,29.93,SW,236,0.0,2.0,83,0.00,,---,0.00,VWS V14.01,2013-07-10 23:23:00,
2013-07-10 19:28:00,80.2,74.9,29.94,SW,236,0.0,2.0,84,0.00,,---,0.00,VWS V14.01,2013-07-10 23:28:00,
2013-07-10 19:33:00,80.0,75.1,29.94,SW,236,0.0,0.0,85,0.00,,---,0.00,VWS V14.01,2013-07-10 23:33:00,
2013-07-10 19:38:00,79.7,74.8,29.93,SW,236,0.0,0.0,85,0.00,,---,0.00,VWS V14.01,2013-07-10 23:38:00,
2013-07-10 19:43:00,79.5,74.9,29.94,SW,222,0.0,1.0,86,0.00,,---,0.00,VWS V14.01,2013-07-10 23:43:00,
2013-07-10 19:48:00,79.3,75.1,29.94,SW,222,0.0,1.0,87,0.00,,---,0.00,VWS V14.01,2013-07-10 23:48:00,
2013-07-10 19:53:00,79.2,75.0,29.94,WSW,248,0.0,1.0,87,0.00,,---,0.00,VWS V14.01,2013-07-10 23:53:00,
2013-07-10 19:58:00,78.9,75.1,29.94,WSW,248,0.0,1.0,88,0.00,,---,0.00,VWS V14.01,2013-07-10 23:58:00,
2013-07-10 20:04:00,78.8,74.9,29.94,SSW,197,0.0,1.0,88,0.00,,---,0.00,VWS V14.01,2013-07-11 00:04:00,
2013-07-10 20:09:00,78.6,75.1,29.94,SSW,197,0.0,1.0,89,0.00,,---,0.00,VWS V14.01,2013-07-11 00:09:00,
2013-07-10 20:14:00,78.6,75.1,29.94,SSW,197,0.0,1.0,89,0.00,,---,0.00,VWS V14.01,2013-07-11 00:14:00,
2013-07-10 20:19:00,78.5,75.3,29.94,SSW,197,0.0,1.0,90,0.00,,---,0.00,VWS V14.01,2013-07-11 00:19:00,
2013-07-10 20:24:00,78.5,75.3,29.94,SSW,197,0.0,1.0,90,0.00,,---,0.00,VWS V14.01,2013-07-11 00:24:00,
2013-07-10 20:29:00,78.4,75.2,29.94,SSW,197,0.0,1.0,90,0.00,,---,0.00,VWS V14.01,2013-07-11 00:29:00,
2013-07-10 20:34:00,78.4,75.2,29.94,SSW,197,0.0,0.0,90,0.00,,---,0.00,VWS V14.01,2013-07-11 00:34:00,
2013-07-10 20:39:00,78.4,75.6,29.95,SSW,197,0.0,0.0,91,0.00,,---,0.00,VWS V14.01,2013-07-11 00:39:00,
2013-07-10 20:45:00,78.3,75.5,29.94,SSW,197,0.0,0.0,91,0.00,,---,0.00,VWS V14.01,2013-07-11 00:45:00,
2013-07-10 20:50:00,78.3,75.5,29.95,SSW,197,0.0,1.0,91,0.00,,---,0.00,VWS V14.01,2013-07-11 00:50:00,
2013-07-10 20:55:00,78.2,75.7,29.95,SSW,197,0.0,1.0,92,0.00,,---,0.00,VWS V14.01,2013-07-11 00:55:00,
2013-07-10 21:00:00,78.3,75.8,29.95,SSW,197,0.0,1.0,92,0.00,,---,0.00,VWS V14.01,2013-07-11 01:00:00,
2013-07-10 21:05:00,78.3,75.8,29.95,SSW,197,1.0,1.0,92,0.00,,---,0.00,VWS V14.01,2013-07-11 01:05:00,
2013-07-10 21:10:00,78.4,75.6,29.95,SSW,194,1.0,2.0,91,0.00,,---,0.00,VWS V14.01,2013-07-11 01:10:00,
2013-07-10 21:15:00,78.6,75.4,29.95,SSW,195,1.0,2.0,90,0.00,,---,0.00,VWS V14.01,2013-07-11 01:15:00,
2013-07-10 21:20:00,78.7,75.5,29.95,SE,146,0.0,2.0,90,0.00,,---,0.00,VWS V14.01,2013-07-11 01:20:00,
2013-07-10 21:25:00,78.8,75.3,29.95,SSE,167,1.0,2.0,89,0.00,,---,0.00,VWS V14.01,2013-07-11 01:25:00,
2013-07-10 21:30:00,78.8,75.3,29.95,SSW,198,1.0,2.0,89,0.00,,---,0.00,VWS V14.01,2013-07-11 01:30:00,
2013-07-10 21:35:00,78.9,75.1,29.95,SSW,198,0.0,1.0,88,0.00,,---,0.00,VWS V14.01,2013-07-11 01:35:00,
2013-07-10 21:40:00,79.0,74.8,29.96,ESE,114,1.0,2.0,87,0.00,,---,0.00,VWS V14.01,2013-07-11 01:40:00,
2013-07-10 21:45:00,79.0,74.8,29.96,NNE,19,1.0,2.0,87,0.00,,---,0.00,VWS V14.01,2013-07-11 01:45:00,
2013-07-10 21:50:00,79.0,74.8,29.96,SSW,200,0.0,2.0,87,0.00,,---,0.00,VWS V14.01,2013-07-11 01:50:00,
2013-07-10 21:55:00,78.9,74.7,29.96,SSW,210,1.0,2.0,87,0.00,,---,0.00,VWS V14.01,2013-07-11 01:55:00,
2013-07-10 22:01:00,78.8,74.6,29.96,South,180,1.0,2.0,87,0.00,,---,0.00,VWS V14.01,2013-07-11 02:01:00,
2013-07-10 22:06:00,78.7,74.5,29.97,SW,224,0.0,1.0,87,0.00,,---,0.00,VWS V14.01,2013-07-11 02:06:00,
2013-07-10 22:11:00,78.7,74.5,29.97,SSW,195,0.0,1.0,87,0.00,,---,0.00,VWS V14.01,2013-07-11 02:11:00,
2013-07-10 22:16:00,78.6,74.4,29.97,South,191,1.0,2.0,87,0.00,,---,0.00,VWS V14.01,2013-07-11 02:16:00,
2013-07-10 22:21:00,78.6,74.8,29.98,West,276,1.0,3.0,88,0.00,,---,0.00,VWS V14.01,2013-07-11 02:21:00,
2013-07-10 22:26:00,78.4,73.5,29.98,WSW,254,1.0,3.0,85,0.00,,---,0.00,VWS V14.01,2013-07-11 02:26:00,
2013-07-10 22:31:00,78.2,72.3,29.98,ENE,60,1.0,3.0,82,0.00,,---,0.00,VWS V14.01,2013-07-11 02:31:00,
2013-07-10 22:36:00,77.8,71.1,29.98,WNW,293,2.0,6.0,80,0.00,,---,0.00,VWS V14.01,2013-07-11 02:36:00,
2013-07-10 22:41:00,77.4,71.1,29.98,West,271,1.0,6.0,81,0.00,,---,0.00,VWS V14.01,2013-07-11 02:41:00,
2013-07-10 22:46:00,77.0,71.1,29.98,SSE,158,0.0,6.0,82,0.00,,---,0.00,VWS V14.01,2013-07-11 02:46:00,
2013-07-10 22:51:00,76.8,70.9,29.97,WSW,245,1.0,6.0,82,0.00,,---,0.00,VWS V14.01,2013-07-11 02:51:00,
2013-07-10 22:57:00,76.6,71.1,29.97,ESE,122,0.0,6.0,83,0.00,,---,0.00,VWS V14.01,2013-07-11 02:57:00,
2013-07-10 23:02:00,76.3,71.1,29.97,ESE,121,0.0,1.0,84,0.00,,---,0.00,VWS V14.01,2013-07-11 03:02:00,
2013-07-10 23:07:00,76.1,70.9,29.97,ESE,121,0.0,1.0,84,0.00,,---,0.00,VWS V14.01,2013-07-11 03:07:00,
2013-07-10 23:12:00,76.0,70.8,29.97,ESE,122,0.0,1.0,84,0.00,,---,0.00,VWS V14.01,2013-07-11 03:12:00,
2013-07-10 23:17:00,75.8,71.0,29.97,ESE,122,0.0,1.0,85,0.00,,---,0.00,VWS V14.01,2013-07-11 03:17:00,
2013-07-10 23:22:00,75.7,70.9,29.97,ESE,122,0.0,1.0,85,0.00,,---,0.00,VWS V14.01,2013-07-11 03:22:00,
2013-07-10 23:27:00,75.5,71.0,29.97,ESE,121,0.0,1.0,86,0.00,,---,0.00,VWS V14.01,2013-07-11 03:27:00,
2013-07-10 23:32:00,75.4,70.9,29.97,ESE,121,0.0,0.0,86,0.00,,---,0.00,VWS V14.01,2013-07-11 03:32:00,
2013-07-10 23:37:00,75.3,70.8,29.97,ESE,122,0.0,0.0,86,0.00,,---,0.00,VWS V14.01,2013-07-11 03:37:00,
2013-07-10 23:42:00,75.3,71.2,29.96,ESE,122,0.0,0.0,87,0.00,,---,0.00,VWS V14.01,2013-07-11 03:42:00,
2013-07-10 23:47:00,75.3,71.2,29.97,ESE,122,0.0,0.0,87,0.00,,---,0.00,VWS V14.01,2013-07-11 03:47:00,
2013-07-10 23:52:00,75.2,71.1,29.96,ESE,122,0.0,0.0,87,0.00,,---,0.00,VWS V14.01,2013-07-11 03:52:00,
2013-07-10 23:58:00,75.1,71.3,29.96,ESE,122,0.0,1.0,88,0.00,,---,0.00,VWS V14.01,2013-07-11 03:58:00,